Meteo Giornale » Osservazioni meteo Francia » Bray
ore: 20:30 - Osservazioni Meteo Bray
Lat. 49° 58' N Lon. 2° 42' E Alt. 111 metri s.l.m.
18 °C
Sereno
Temp. 24 Ore
16 °C
22 °C
Ovest
20.3 Km/h
Dew point 14 °C
Umidità 77 %
Visibilità 10 Km
Il sole sorge alle ore 07:02
Il sole tramonta alle ore 20:36
| Data e Ora | Cielo e Fenomeni | T °C | DP °C | Um. % | Pres. hPa | Vis. km | Vento km/h | |
|---|---|---|---|---|---|---|---|---|
| Oggi h: 20:30 | Sereno | 18 | 14 | 77 | 1018 | 10 | O 20.3 | |
| Oggi h: 20:00 | Sereno | 19 | 13 | 68 | 1018 | 10 | O 18.5 | |
| Oggi h: 19:30 | Sereno | 20 | 12 | 59 | 1017 | 10 | O 24 | |
| Oggi h: 19:00 | Poco Nuvoloso | 21 | 12 | 56 | 1017 | 10 | O 31.5 | |
| Oggi h: 18:30 | Poco Nuvoloso | 21 | 13 | 60 | 1017 | 10 | O 31.5 | |
| Oggi h: 18:00 | Poco Nuvoloso | 21 | 13 | 60 | 1017 | 10 | O 35.2 | |
| Oggi h: 17:30 | Nuvoloso | 21 | 13 | 60 | 1016 | 10 | O 37 | |
| Oggi h: 17:00 | Molto Nuvoloso | 22 | 13 | 56 | 1016 | 10 | O 31.5 | |
| Oggi h: 16:30 | Nuvoloso | 22 | 13 | 56 | 1016 | 10 | O 40.7 | |
| Oggi h: 16:00 | Poco Nuvoloso | 22 | 13 | 56 | 1015 | 10 | O 37 | |
| Oggi h: 15:30 | Poco Nuvoloso | 22 | 12 | 53 | 1015 | 10 | O 37 | |
| Oggi h: 15:00 | Poco Nuvoloso | 22 | 12 | 53 | 1015 | 10 | O 38.8 | |
| Oggi h: 14:30 | Nuvoloso | 22 | 13 | 56 | 1014 | 10 | O 35.2 | |
| Oggi h: 14:00 | Nuvoloso | 21 | 14 | 64 | 1014 | 10 | O 31.5 | |
| Oggi h: 13:30 | Molto Nuvoloso | 21 | 15 | 68 | 1014 | 10 | O/SO 31.5 | |
| Oggi h: 13:00 | Pioggia | 17 | 15 | 88 | 1013 | 10 | O/SO 31.5 | |
| Oggi h: 12:30 | Molto Nuvoloso | 20 | 14 | 68 | 1013 | 10 | O/SO 40.7 | |
| Oggi h: 12:00 | Molto Nuvoloso | 20 | 14 | 68 | 1013 | 10 | O/SO 40.7 | |
| Oggi h: 11:30 | Molto Nuvoloso | 19 | 14 | 72 | 1013 | 10 | SO 38.8 | |
| Oggi h: 11:00 | Molto Nuvoloso | 19 | 14 | 72 | 1012 | 10 | SO 40.7 | |
| Oggi h: 10:30 | Molto Nuvoloso | 19 | 15 | 77 | 1012 | 10 | SO 37 | |
| Oggi h: 10:00 | Molto Nuvoloso | 18 | 14 | 77 | 1012 | 10 | SO 33.3 | |
| Oggi h: 09:30 | Poco Nuvoloso | 18 | 14 | 77 | 1012 | 10 | SO 38.8 | |
| Oggi h: 09:00 | Nuvoloso | 18 | 14 | 77 | 1011 | 10 | SO 33.3 | |
| Oggi h: 08:30 | Coperto | 17 | 14 | 82 | 1011 | 10 | SO 31.5 | |
| Oggi h: 08:00 | Coperto | 17 | 14 | 82 | 1011 | 10 | S/SO 31.5 | |
| Oggi h: 07:30 | Coperto | 16 | 14 | 87 | 1011 | 10 | S/SO 27.8 | |
| Oggi h: 07:00 | Molto Nuvoloso | 16 | 14 | 87 | 1011 | 10 | S/SO 27.8 | |
| Oggi h: 06:30 | Coperto | 16 | 14 | 87 | 1011 | 10 | S/SO 29.6 | |
| Oggi h: 06:00 | Molto Nuvoloso | 16 | 14 | 87 | 1011 | 10 | S/SO 22.2 | |
| Oggi h: 05:30 | Coperto | 16 | 14 | 87 | 1011 | 10 | S/SO 24 | |
| Oggi h: 05:00 | Molto Nuvoloso | 16 | 14 | 87 | 1011 | 10 | S/SO 22.2 | |
| Oggi h: 04:30 | Molto Nuvoloso | 16 | 14 | 87 | 1011 | 10 | S/SO 20.3 | |
| Oggi h: 04:00 | Coperto | 16 | 14 | 87 | 1011 | 10 | S/SO 22.2 | |
| Oggi h: 03:30 | Molto Nuvoloso | 16 | 14 | 87 | 1011 | 10 | S/SO 18.5 | |
| Oggi h: 03:00 | Sereno | 16 | 14 | 87 | 1011 | 10 | S/SO 20.3 | |
| Oggi h: 02:30 | Sereno | 16 | 14 | 87 | 1011 | 10 | S/SO 18.5 | |
| Oggi h: 02:00 | Sereno | 16 | 14 | 87 | 1011 | 10 | S/SO 16.7 | |
| Oggi h: 01:30 | Sereno | 16 | 14 | 87 | 1011 | 10 | SO 20.3 | |
| Oggi h: 01:00 | Sereno | 16 | 14 | 87 | 1011 | 10 | SO 20.3 | |
| Oggi h: 00:30 | Sereno | 16 | 15 | 93 | 1011 | 10 | SO 11.1 | |
| Oggi h: 00:00 | Coperto | 17 | 16 | 93 | 1011 | 10 | O 11.1 | |
| Ieri h: 23:30 | Pioggia Temporale nelle vicinanze | 17 | 16 | 93 | 1011 | 10 | S 14.8 | |
| Ieri h: 23:00 | Sereno | 17 | 15 | 88 | 1010 | 10 | S/SE 9.3 | |
| Ieri h: 22:30 | Sereno | 18 | 15 | 82 | 1011 | 10 | S 11.1 | |
| Ieri h: 22:00 | Sereno | 18 | 15 | 82 | 1011 | 10 | S 9.3 | |



